Change the Weather History Date:

Sunday, February 5, 2012

  Actual Average Record
Temperature  
Mean Temperature 28 °F -  
Max Temperature 36 °F 23 °F 48 °F (2005)
Min Temperature 19 °F 4 °F -26 °F (1936)
Degree Days  
Heating Degree Days 38    
Moisture  
Dew Point 23 °F    
Average Humidity 85    
Maximum Humidity 93    
Minimum Humidity 70    
Precipitation  
Precipitation 0.00 in - - ()
Sea Level Pressure  
Sea Level Pressure 30.29 in    
Wind  
Wind Speed 5 mph (WNW)    
Max Wind Speed 13 mph    
Max Gust Speed -    
Visibility 8 miles    
Events      
Averages and records for this station are not official NWS values.
T = Trace of Precipitation, MM = Missing Value Source: NWS Daily Summary

Daily Weather History Graph

Daily Weather History Graph

Search for Another Location

Airport or City:

Trip Planner

Search our weather history database for the weather conditions in past years. The results will help you decide how hot, cold, wet, or windy it might be!

Date:

Astronomy

Feb. 05, 2012 Rise Set
Actual Time 7:15 AM CST 5:14 PM CST
Civil Twilight 6:44 AM CST 5:45 PM CST
Nautical Twilight 6:10 AM CST 6:20 PM CST
Astronomical Twilight 5:35 AM CST 6:54 PM CST
Moon 3:10 PM CST (2/5) 5:29 AM CST (2/5)
Length of Visible Light 11h 00m
Length of Day
9h 59m
Waxing Gibbous, 95% of the Moon is Illuminated
Feb 5
Waxing Gibbous
Feb 7
Full
Feb 14
Last Quarter
Feb 21
New
Feb 29
First Quarter

Hourly Weather History & Observations

Time (CST) Temp. Windchill Dew Point Humidity Pressure Visibility Wind Dir Wind Speed Gust Speed Precip Events Conditions
12:54 AM 26.1 °F 18.4 °F 21.9 °F 84% 30.25 in 10.0 mi NW 6.9 mph - N/A   Clear
1:54 AM 25.0 °F 20.7 °F 21.0 °F 85% 30.27 in 10.0 mi WNW 3.5 mph - N/A   Clear
2:54 AM 23.0 °F 18.4 °F 21.0 °F 92% 30.28 in 10.0 mi WNW 3.5 mph - N/A   Clear
3:54 AM 21.9 °F 17.2 °F 19.0 °F 89% 30.29 in 8.0 mi NNW 3.5 mph - N/A   Clear
4:54 AM 21.9 °F 15.7 °F 19.0 °F 89% 30.30 in 8.0 mi NW 4.6 mph - N/A   Clear
5:54 AM 19.9 °F 14.9 °F 18.0 °F 92% 30.31 in 8.0 mi North 3.5 mph - N/A   Clear
6:54 AM 19.9 °F 14.9 °F 17.1 °F 89% 30.33 in 8.0 mi North 3.5 mph - N/A   Clear
7:54 AM 19.9 °F 14.9 °F 17.1 °F 89% 30.34 in 6.0 mi NNW 3.5 mph - N/A   Clear
8:54 AM 25.0 °F - 21.9 °F 88% 30.35 in 7.0 mi Calm Calm - N/A   Clear
9:20 AM 24.8 °F 20.5 °F 21.2 °F 86% 30.29 in 6.0 mi NW 3.5 mph - N/A   Partly Cloudy
9:45 AM 24.8 °F 20.5 °F 21.2 °F 86% 30.30 in 3.0 mi NW 3.5 mph - N/A   Mostly Cloudy
9:54 AM 25.0 °F - 21.9 °F 88% 30.36 in 4.0 mi Calm Calm - N/A   Mostly Cloudy
10:23 AM 26.6 °F - 24.8 °F 93% 30.30 in 5.0 mi Calm Calm - N/A   Scattered Clouds
10:34 AM 26.6 °F - 23.0 °F 86% 30.30 in 5.0 mi Calm Calm - N/A   Mostly Cloudy
10:54 AM 27.0 °F - 23.0 °F 85% 30.36 in 5.0 mi Calm Calm - N/A   Scattered Clouds
11:54 AM 30.0 °F 26.5 °F 25.0 °F 82% 30.34 in 10.0 mi NW 3.5 mph - 0.00 in   Clear
12:54 PM 33.1 °F 26.1 °F 25.0 °F 72% 30.31 in 10.0 mi WNW 8.1 mph - N/A   Clear
1:54 PM 35.1 °F 28.6 °F 26.1 °F 70% 30.30 in 10.0 mi WNW 8.1 mph - N/A   Clear
2:54 PM 36.0 °F 30.3 °F 27.0 °F 70% 30.29 in 10.0 mi West 6.9 mph - N/A   Clear
3:54 PM 35.1 °F 29.3 °F 27.0 °F 72% 30.28 in 10.0 mi WSW 6.9 mph - N/A   Clear
4:54 PM 34.0 °F 27.2 °F 26.1 °F 73% 30.27 in 10.0 mi WSW 8.1 mph - N/A   Clear
5:54 PM 30.9 °F 24.3 °F 25.0 °F 79% 30.27 in 10.0 mi WSW 6.9 mph - N/A   Clear
6:54 PM 28.0 °F 17.5 °F 24.1 °F 85% 30.27 in 9.0 mi WSW 12.7 mph - N/A   Partly Cloudy
7:07 PM 26.6 °F 16.8 °F 24.8 °F 93% 30.20 in 6.0 mi WSW 10.4 mph - N/A   Mostly Cloudy
7:54 PM 27.0 °F 18.0 °F 25.0 °F 92% 30.26 in 8.0 mi West 9.2 mph - N/A   Overcast
8:54 PM 27.0 °F 17.3 °F 25.0 °F 92% 30.25 in 6.0 mi West 10.4 mph - N/A   Overcast
9:54 PM 27.0 °F 19.5 °F 24.1 °F 89% 30.22 in 4.0 mi WSW 6.9 mph - N/A   Overcast
10:54 PM 27.0 °F 18.0 °F 24.1 °F 89% 30.21 in 5.0 mi West 9.2 mph - N/A   Overcast
11:54 PM 27.0 °F 17.3 °F 24.1 °F 89% 30.18 in 5.0 mi WSW 10.4 mph - N/A   Overcast